Time,TemperatureF,DewpointF,PressureIn,WindDirection,WindDirectionDegrees,WindSpeedMPH,WindSpeedGustMPH,Humidity,HourlyPrecipIn,Conditions,Clouds,dailyrainin,SolarRadiationWatts/m^2,SoftwareType,DateUTC
2013-05-16 00:02:00,56.0,38.0,-100.00,North,359,0.0,3.0,50,0.00,,,0.00,0.000000,,2013-05-16 05:02:00,
2013-05-16 00:12:00,56.0,38.0,-100.00,North,359,0.0,3.0,50,0.00,,,0.00,0.000000,,2013-05-16 05:12:00,
2013-05-16 00:42:00,54.0,38.0,-100.00,NNE,28,0.0,3.0,54,0.00,,,0.00,0.000000,,2013-05-16 05:42:00,
2013-05-16 00:52:00,54.0,38.0,-100.00,NNE,28,0.0,3.0,54,0.00,,,0.00,0.000000,,2013-05-16 05:52:00,
2013-05-16 01:01:00,54.0,38.0,-100.00,NNE,28,0.0,3.0,54,0.00,,,0.00,0.000000,,2013-05-16 06:01:00,
2013-05-16 01:12:00,54.0,38.0,-100.00,NNE,28,0.0,3.0,54,0.00,,,0.00,0.000000,,2013-05-16 06:12:00,
2013-05-16 01:43:00,53.0,43.0,-100.00,North,5,0.0,2.0,68,0.00,,,0.00,0.000000,,2013-05-16 06:43:00,
2013-05-16 01:53:00,53.0,43.0,-100.00,North,5,0.0,2.0,68,0.00,,,0.00,0.000000,,2013-05-16 06:53:00,
2013-05-16 02:02:00,53.0,43.0,-100.00,North,5,0.0,2.0,68,0.00,,,0.00,0.000000,,2013-05-16 07:02:00,
2013-05-16 02:12:00,53.0,43.0,-100.00,North,5,0.0,2.0,68,0.00,,,0.00,0.000000,,2013-05-16 07:12:00,
2013-05-16 02:44:00,51.0,43.0,-100.00,NNW,341,2.0,3.0,74,0.00,,,0.00,0.000000,,2013-05-16 07:44:00,
2013-05-16 02:54:00,51.0,43.0,-100.00,NNW,341,2.0,3.0,74,0.00,,,0.00,0.000000,,2013-05-16 07:54:00,
2013-05-16 03:03:00,51.0,43.0,-100.00,NNW,341,2.0,3.0,74,0.00,,,0.00,0.000000,,2013-05-16 08:03:00,
2013-05-16 03:13:00,51.0,43.0,-100.00,NNW,341,2.0,3.0,74,0.00,,,0.00,0.000000,,2013-05-16 08:13:00,
2013-05-16 03:45:00,49.0,42.0,-100.00,North,7,2.0,4.0,77,0.00,,,-99.99,0.000000,,2013-05-16 08:45:00,
2013-05-16 03:55:00,49.0,42.0,-100.00,North,7,2.0,4.0,77,0.00,,,-99.99,0.000000,,2013-05-16 08:55:00,
2013-05-16 04:04:00,49.0,42.0,-100.00,North,7,2.0,4.0,77,0.00,,,-99.99,0.000000,,2013-05-16 09:04:00,
2013-05-16 04:14:00,49.0,42.0,-100.00,North,7,2.0,4.0,77,0.00,,,-99.99,0.000000,,2013-05-16 09:14:00,
2013-05-16 04:15:00,48.0,42.0,-100.00,NNW,344,2.0,3.0,81,0.00,,,0.00,0.000000,,2013-05-16 09:15:00,
2013-05-16 04:45:00,48.0,42.0,-100.00,NNW,344,2.0,3.0,81,0.00,,,0.00,0.000000,,2013-05-16 09:45:00,
2013-05-16 04:55:00,48.0,42.0,-100.00,NNW,344,2.0,3.0,81,0.00,,,0.00,0.000000,,2013-05-16 09:55:00,
2013-05-16 05:05:00,48.0,42.0,-100.00,NNW,344,2.0,3.0,81,0.00,,,0.00,0.000000,,2013-05-16 10:05:00,
2013-05-16 05:45:00,47.0,40.0,-100.00,North,349,0.0,4.0,77,0.00,,,0.00,0.000000,,2013-05-16 10:45:00,
2013-05-16 05:56:00,47.0,40.0,-100.00,North,349,0.0,4.0,77,0.00,,,0.00,0.000000,,2013-05-16 10:56:00,
2013-05-16 06:05:00,47.0,40.0,-100.00,North,349,0.0,4.0,77,0.00,,,0.00,0.000000,,2013-05-16 11:05:00,
2013-05-16 06:14:00,47.0,40.0,-100.00,North,349,0.0,4.0,77,0.00,,,0.00,0.000000,,2013-05-16 11:14:00,
2013-05-16 06:46:00,45.0,39.0,-100.00,SW,220,0.0,3.0,80,0.00,,,-99.99,13.000000,,2013-05-16 11:46:00,
2013-05-16 06:57:00,45.0,39.0,-100.00,SW,220,0.0,3.0,80,0.00,,,-99.99,13.000000,,2013-05-16 11:57:00,
2013-05-16 07:06:00,45.0,39.0,-100.00,SW,220,0.0,3.0,80,0.00,,,-99.99,13.000000,,2013-05-16 12:06:00,
2013-05-16 07:13:00,45.0,39.0,-100.00,SW,220,0.0,3.0,80,0.00,,,-99.99,13.000000,,2013-05-16 12:13:00,
2013-05-16 07:45:00,61.0,39.0,-100.00,NNE,30,3.0,6.0,44,0.00,,,0.00,132.000000,,2013-05-16 12:45:00,
2013-05-16 07:53:00,61.0,39.0,-100.00,NNE,30,3.0,6.0,44,0.00,,,0.00,132.000000,,2013-05-16 12:53:00,
2013-05-16 08:12:00,61.0,39.0,-100.00,NNE,30,3.0,6.0,44,0.00,,,0.00,132.000000,,2013-05-16 13:12:00,
2013-05-16 08:15:00,66.0,38.0,-100.00,NE,46,5.0,11.0,35,0.00,,,0.00,298.000000,,2013-05-16 13:15:00,
2013-05-16 08:44:00,66.0,38.0,-100.00,NE,46,5.0,11.0,35,0.00,,,0.00,298.000000,,2013-05-16 13:44:00,
2013-05-16 08:55:00,66.0,38.0,-100.00,NE,46,5.0,11.0,35,0.00,,,0.00,298.000000,,2013-05-16 13:55:00,
2013-05-16 09:05:00,66.0,38.0,-100.00,NE,46,5.0,11.0,35,0.00,,,0.00,298.000000,,2013-05-16 14:05:00,
2013-05-16 09:15:00,70.0,37.0,-100.00,ENE,57,4.0,13.0,30,0.00,,,0.00,473.000000,,2013-05-16 14:15:00,
2013-05-16 09:47:00,70.0,37.0,-100.00,ENE,57,4.0,13.0,30,0.00,,,0.00,473.000000,,2013-05-16 14:47:00,
2013-05-16 09:56:00,70.0,37.0,-100.00,ENE,57,4.0,13.0,30,0.00,,,0.00,473.000000,,2013-05-16 14:56:00,
2013-05-16 10:08:00,70.0,37.0,-100.00,ENE,57,4.0,13.0,30,0.00,,,0.00,473.000000,,2013-05-16 15:08:00,
2013-05-16 10:15:00,74.0,36.0,-100.00,East,85,5.0,12.0,25,0.00,,,0.00,624.000000,,2013-05-16 15:15:00,
2013-05-16 10:50:00,74.0,36.0,-100.00,East,85,5.0,12.0,25,0.00,,,0.00,624.000000,,2013-05-16 15:50:00,
2013-05-16 11:00:00,74.0,36.0,-100.00,East,85,5.0,12.0,25,0.00,,,0.00,624.000000,,2013-05-16 16:00:00,
2013-05-16 11:09:00,74.0,36.0,-100.00,East,85,5.0,12.0,25,0.00,,,0.00,624.000000,,2013-05-16 16:09:00,
2013-05-16 11:15:00,76.0,33.0,-100.00,NNE,18,4.0,11.0,21,0.00,,,0.00,664.000000,,2013-05-16 16:15:00,
2013-05-16 11:51:00,76.0,33.0,-100.00,NNE,18,4.0,11.0,21,0.00,,,0.00,664.000000,,2013-05-16 16:51:00,
2013-05-16 12:01:00,76.0,33.0,-100.00,NNE,18,4.0,11.0,21,0.00,,,0.00,664.000000,,2013-05-16 17:01:00,
2013-05-16 12:10:00,76.0,33.0,-100.00,NNE,18,4.0,11.0,21,0.00,,,0.00,664.000000,,2013-05-16 17:10:00,
2013-05-16 12:15:00,78.0,31.0,-100.00,North,9,5.0,13.0,18,0.00,,,0.00,735.000000,,2013-05-16 17:15:00,
2013-05-16 12:50:00,-999.0,-99.9,-100.00,North,9,5.0,13.0,18,0.00,,,0.00,735.000000,,2013-05-16 17:50:00,
2013-05-16 13:00:00,-999.0,-99.9,-100.00,North,9,5.0,13.0,18,0.00,,,0.00,735.000000,,2013-05-16 18:00:00,
2013-05-16 13:10:00,78.0,31.0,-100.00,North,9,5.0,13.0,18,0.00,,,0.00,735.000000,,2013-05-16 18:10:00,
2013-05-16 13:15:00,78.0,27.0,-100.00,North,11,6.0,15.0,15,0.00,,,0.00,902.000000,,2013-05-16 18:15:00,
2013-05-16 13:50:00,-999.0,-99.9,-100.00,North,11,6.0,15.0,15,0.00,,,0.00,902.000000,,2013-05-16 18:50:00,
2013-05-16 14:00:00,-999.0,-99.9,-100.00,North,11,6.0,15.0,15,0.00,,,0.00,902.000000,,2013-05-16 19:00:00,
2013-05-16 14:10:00,78.0,27.0,-100.00,North,11,6.0,15.0,15,0.00,,,0.00,902.000000,,2013-05-16 19:10:00,
2013-05-16 14:15:00,79.0,-99.9,-100.00,NE,34,6.0,16.0,15,0.00,,,0.00,841.000000,,2013-05-16 19:15:00,
2013-05-16 14:51:00,-999.0,-99.9,-100.00,NE,34,6.0,16.0,15,0.00,,,0.00,841.000000,,2013-05-16 19:51:00,
2013-05-16 15:01:00,-999.0,-99.9,-100.00,NE,34,6.0,16.0,15,0.00,,,0.00,841.000000,,2013-05-16 20:01:00,
2013-05-16 15:10:00,-999.0,-99.9,-100.00,NE,34,6.0,16.0,15,0.00,,,0.00,841.000000,,2013-05-16 20:10:00,
2013-05-16 15:15:00,79.0,-99.9,-100.00,NE,49,6.0,14.0,16,0.00,,,0.00,799.000000,,2013-05-16 20:15:00,
2013-05-16 15:51:00,79.0,29.0,-100.00,NE,49,6.0,14.0,16,0.00,,,0.00,799.000000,,2013-05-16 20:51:00,
2013-05-16 16:00:00,79.0,-99.9,-100.00,NE,49,6.0,14.0,16,0.00,,,0.00,799.000000,,2013-05-16 21:00:00,
2013-05-16 16:10:00,79.0,-99.9,-100.00,NE,49,6.0,14.0,16,0.00,,,0.00,799.000000,,2013-05-16 21:10:00,
2013-05-16 16:15:00,78.0,31.0,-100.00,NNE,26,6.0,14.0,18,0.00,,,0.00,574.000000,,2013-05-16 21:15:00,
2013-05-16 17:00:00,-999.0,-99.9,-100.00,NNE,26,6.0,14.0,18,0.00,,,0.00,574.000000,,2013-05-16 22:00:00,
2013-05-16 17:08:00,78.0,31.0,-100.00,NNE,26,6.0,14.0,18,0.00,,,0.00,574.000000,,2013-05-16 22:08:00,
2013-05-16 17:15:00,79.0,30.0,-100.00,ENE,61,7.0,15.0,17,0.00,,,-99.99,417.000000,,2013-05-16 22:15:00,
2013-05-16 17:51:00,79.0,30.0,-100.00,ENE,61,7.0,15.0,17,0.00,,,-99.99,417.000000,,2013-05-16 22:51:00,
2013-05-16 18:01:00,79.0,30.0,-100.00,ENE,61,7.0,15.0,17,0.00,,,-99.99,417.000000,,2013-05-16 23:01:00,
2013-05-16 18:06:00,79.0,30.0,-100.00,ENE,61,7.0,15.0,17,0.00,,,-99.99,417.000000,,2013-05-16 23:06:00,
2013-05-16 18:45:00,77.0,32.0,-100.00,NE,53,5.0,17.0,19,0.00,,,0.00,302.000000,,2013-05-16 23:45:00,
2013-05-16 18:54:00,77.0,32.0,-100.00,NE,53,5.0,17.0,19,0.00,,,0.00,302.000000,,2013-05-16 23:54:00,
2013-05-16 19:02:00,77.0,32.0,-100.00,NE,53,5.0,17.0,19,0.00,,,0.00,302.000000,,2013-05-17 00:02:00,
2013-05-16 19:13:00,77.0,32.0,-100.00,NE,53,5.0,17.0,19,0.00,,,0.00,302.000000,,2013-05-17 00:13:00,
2013-05-16 19:44:00,73.0,30.0,-100.00,NNE,28,6.0,15.0,20,0.00,,,0.00,150.000000,,2013-05-17 00:44:00,
2013-05-16 19:53:00,73.0,30.0,-100.00,NNE,28,6.0,15.0,20,0.00,,,0.00,150.000000,,2013-05-17 00:53:00,
2013-05-16 20:03:00,73.0,30.0,-100.00,NNE,28,6.0,15.0,20,0.00,,,0.00,150.000000,,2013-05-17 01:03:00,
2013-05-16 20:12:00,73.0,30.0,-100.00,NNE,28,6.0,15.0,20,0.00,,,0.00,150.000000,,2013-05-17 01:12:00,
2013-05-16 20:44:00,69.0,29.0,-100.00,ENE,69,6.0,15.0,22,0.00,,,0.00,45.000000,,2013-05-17 01:44:00,
2013-05-16 20:52:00,69.0,29.0,-100.00,ENE,69,6.0,15.0,22,0.00,,,0.00,45.000000,,2013-05-17 01:52:00,
2013-05-16 21:02:00,69.0,29.0,-100.00,ENE,69,6.0,15.0,22,0.00,,,0.00,45.000000,,2013-05-17 02:02:00,
2013-05-16 21:11:00,69.0,29.0,-100.00,ENE,69,6.0,15.0,22,0.00,,,0.00,45.000000,,2013-05-17 02:11:00,
2013-05-16 21:33:00,67.0,27.0,-100.00,ENE,69,5.0,15.0,22,0.00,,,0.00,2.000000,,2013-05-17 02:33:00,
2013-05-16 21:42:00,67.0,27.0,-100.00,ENE,69,5.0,15.0,22,0.00,,,0.00,2.000000,,2013-05-17 02:42:00,
2013-05-16 21:53:00,67.0,27.0,-100.00,ENE,69,5.0,15.0,22,0.00,,,0.00,2.000000,,2013-05-17 02:53:00,
2013-05-16 22:02:00,67.0,27.0,-100.00,ENE,69,5.0,15.0,22,0.00,,,0.00,2.000000,,2013-05-17 03:02:00,
2013-05-16 22:11:00,67.0,27.0,-100.00,ENE,69,5.0,15.0,22,0.00,,,0.00,2.000000,,2013-05-17 03:11:00,
2013-05-16 22:43:00,64.0,23.0,-100.00,ENE,76,4.0,14.0,21,0.00,,,0.00,0.000000,,2013-05-17 03:43:00,
2013-05-16 22:53:00,64.0,23.0,-100.00,ENE,76,4.0,14.0,21,0.00,,,0.00,0.000000,,2013-05-17 03:53:00,
2013-05-16 23:02:00,64.0,23.0,-100.00,ENE,76,4.0,14.0,21,0.00,,,0.00,0.000000,,2013-05-17 04:02:00,
2013-05-16 23:13:00,64.0,23.0,-100.00,ENE,76,4.0,14.0,21,0.00,,,0.00,0.000000,,2013-05-17 04:13:00,
2013-05-16 23:34:00,62.0,26.0,-100.00,NE,47,3.0,10.0,25,0.00,,,-99.99,0.000000,,2013-05-17 04:34:00,
2013-05-16 23:43:00,62.0,26.0,-100.00,NE,47,3.0,10.0,25,0.00,,,-99.99,0.000000,,2013-05-17 04:43:00,
2013-05-16 23:53:00,62.0,26.0,-100.00,NE,47,3.0,10.0,25,0.00,,,-99.99,0.000000,,2013-05-17 04:53:00,